Tracking 23726 objects as of 24-Sep-2021
HD Live streaming from Space Station
objects crossing your sky now

STARLINK-2372

Track STARLINK-2372 now!
10-day predictions
STARLINK-2372 is classified as:


NORAD ID: 47912
Int'l Code: 2021-021BE
Perigee: 553.5 km
Apogee: 555.1 km
Inclination: 53.1 °
Period: 95.6 minutes
Semi major axis: 6925 km
RCS: Unknown
Launch date: March 14, 2021
Source: United States (US)
Launch site: AIR FORCE EASTERN TEST RANGE (AFETR)
aabbcc
Your satellite tracking list
Your tracking list is empty




NASA's NSSDC Master Catalog

Two Line Element Set (TLE):
1 47912U 21021BE  21266.79648594  .00000492  00000-0  51924-4 0  9998
2 47912  53.0529  19.5244 0001134 125.5540 234.5555 15.06406406 30346
Source of the keplerian elements: AFSPC